Wind_Speed
8 7 6 4 2 1 3 5 7 9 10 10 10 9 8 5 3 2 4 5 7 10 12 13 13 14 14 13 11 11 12 12 13 15 19 22 23 25 27 28 29 31 32 32 29 24 21 18 17 16 18 21 25 27 29 29 27 28 30 30 30 28 27
10 9 8 6 5 3 2 3 5 7 7 7 8 8 8 7 6 5 5 5 4 4 7 9 11 13 15 16 14 14 13 14 14 14 16 17 19 22 24 26 29 30 31 33 33 32 31 27 23 20 17 17 23 28 29 29 28 29 30 30 28 27 26
10 10 9 8 6 4 3 2 3 4 5 6 6 7 7 7 6 7 7 7 7 6 5 6 8 10 13 17 18 18 18 17 18 18 17 17 17 20 21 23 27 29 30 33 34 35 36 33 30 26 19 15 19 24 28 30 30 30 32 30 28 27 27
10 11 11 9 7 7 5 3 2 3 5 6 6 7 7 8 8 9 10 9 10 10 8 7 7 8 10 14 17 20 21 22 22 22 21 20 19 20 20 20 24 28 29 32 34 35 36 34 32 31 27 22 21 21 22 28 31 31 31 31 29 28 28
11 12 11 10 9 9 7 5 4 4 4 5 7 8 8 9 10 11 12 12 13 13 13 12 11 10 11 12 14 17 20 22 24 24 24 23 22 22 22 20 21 24 27 30 32 33 34 34 32 32 32 29 27 25 21 22 27 30 31 31 30 29 28
13 13 12 11 12 10 8 7 6 5 5 6 7 8 9 11 12 12 13 14 15 16 16 16 16 16 15 15 15 17 19 21 22 24 26 26 24 24 24 24 22 22 24 27 29 30 32 34 33 33 34 31 29 30 25 21 22 23 27 30 31 32 30
14 14 13 13 13 11 10 9 8 7 6 7 7 8 9 11 13 14 15 16 17 17 17 17 17 18 19 20 20 19 20 21 22 24 26 27 27 27 27 26 25 24 24 25 27 30 32 34 33 33 33 30 29 31 30 27 25 23 23 24 25 29 31
14 14 14 15 14 13 12 11 10 8 8 9 9 10 11 13 14 16 17 18 19 18 18 17 17 18 19 20 21 21 21 22 23 24 26 28 29 29 29 28 27 26 26 26 26 27 30 33 33 33 34 32 30 31 33 33 33 33 32 27 23 22 24
13 14 15 16 15 14 14 13 12 11 10 11 11 12 13 15 16 18 19 20 19 19 19 19 20 19 18 17 18 19 20 21 23 26 28 30 31 30 30 29 29 29 28 27 26 27 28 30 33 34 36 36 34 33 34 34 35 38 39 35 30 27 24
12 13 14 16 16 16 15 13 13 13 13 13 13 14 15 16 18 19 20 20 19 19 20 20 21 22 21 19 18 18 18 19 22 25 28 30 32 33 32 31 30 31 31 29 27 28 28 28 30 32 34 35 35 35 34 33 35 38 39 37 34 33 30
12 12 13 15 16 16 15 14 13 14 14 15 15 16 17 18 19 19 19 19 19 20 20 20 21 22 22 22 22 21 19 20 21 24 27 30 32 32 33 33 32 31 31 31 29 29 28 28 28 29 32 33 33 34 34 34 36 38 37 37 36 36 34
11 12 12 14 16 16 15 14 14 15 15 16 17 17 18 19 19 19 19 19 20 21 21 20 20 21 22 23 23 22 21 21 21 22 24 27 30 30 30 31 32 30 29 29 29 29 28 29 29 29 31 32 32 33 34 34 35 37 37 36 37 37 35
12 12 13 14 15 15 15 15 15 16 16 17 17 18 18 18 19 19 19 20 21 22 23 21 20 21 22 23 24 24 24 24 23 23 22 23 26 28 29 28 29 29 28 27 27 27 28 29 30 30 30 32 32 33 33 34 36 38 38 36 35 35 35
12 12 13 14 15 15 15 16 16 16 17 18 18 18 18 18 18 19 19 21 23 23 23 23 22 22 22 24 25 25 26 26 25 25 24 23 23 25 28 28 28 27 27 27 26 25 26 28 29 30 30 31 32 33 34 36 36 39 40 37 35 36 35
13 13 14 15 16 16 16 16 16 17 17 17 18 17 18 18 18 19 20 22 24 24 23 23 22 22 23 25 27 27 27 26 25 25 25 25 23 23 24 27 29 29 28 28 28 27 26 26 27 28 29 30 33 34 34 36 36 38 40 39 36 36 36
15 15 15 16 16 16 16 16 16 17 17 17 17 17 18 18 18 19 22 24 24 24 24 24 23 23 24 26 28 28 27 26 25 26 26 26 25 24 24 24 27 29 29 29 31 31 29 27 26 27 29 29 32 34 34 35 36 36 39 41 38 36 36
17 17 16 16 17 16 16 16 16 17 16 16 16 17 18 18 19 20 22 23 25 25 25 25 25 25 25 26 27 27 26 25 25 26 26 27 26 25 25 25 24 26 28 29 30 31 32 31 28 26 27 28 30 33 33 33 33 35 38 40 38 36 36
19 18 18 17 17 17 17 16 16 16 15 15 16 17 18 19 20 21 22 23 25 25 25 25 25 25 25 25 26 26 26 25 26 27 27 28 28 27 27 27 27 25 26 28 30 30 31 33 32 30 27 26 27 30 33 33 32 33 35 38 39 37 35
20 19 19 18 18 17 16 16 15 15 14 15 16 17 18 20 21 23 24 25 25 25 25 25 26 26 27 26 26 26 26 27 27 28 29 29 30 29 29 29 29 28 27 27 29 29 30 31 33 34 32 29 26 26 29 32 33 33 35 36 38 37 36
20 19 18 18 17 16 15 15 14 13 14 15 16 17 19 20 22 23 25 25 26 26 26 26 26 27 27 27 27 27 28 28 29 29 30 30 30 31 31 30 30 29 28 28 28 29 30 31 33 35 34 33 31 29 29 30 32 34 36 37 36 36 37
20 19 18 17 16 16 15 14 13 13 14 15 16 17 19 20 22 23 24 25 26 26 26 26 26 26 26 27 27 28 28 29 30 30 30 30 30 30 30 30 30 30 29 29 30 30 30 31 33 36 36 35 34 33 31 30 30 32 35 37 37 36 37
19 18 17 17 17 15 14 13 13 13 14 15 16 18 19 20 21 22 24 25 26 27 27 28 28 27 27 27 27 28 29 30 31 32 33 33 33 32 32 32 31 31 30 30 30 31 31 32 33 35 38 38 37 36 34 32 30 29 30 33 35 36 38
19 18 18 18 17 15 14 13 12 13 14 15 17 19 19 20 22 23 24 25 27 28 29 29 29 28 27 27 28 29 30 31 32 33 34 35 36 36 37 37 37 36 35 33 33 33 34 33 33 34 36 38 40 40 38 38 36 33 31 30 30 32 36
19 19 19 18 17 15 13 12 12 13 15 16 18 19 20 20 21 22 24 26 28 30 31 31 31 30 28 27 28 30 32 34 35 36 36 37 38 39 39 39 39 40 40 39 38 38 38 37 35 34 33 35 40 42 43 43 43 41 39 36 34 32 32
20 19 19 18 15 13 11 12 13 15 16 17 19 19 19 20 21 23 26 28 29 31 32 33 32 30 29 28 28 29 31 32 34 35 37 39 40 41 41 41 41 41 41 41 41 40 40 40 39 37 35 34 35 40 44 45 46 47 45 44 43 39 36
20 19 18 15 12 11 12 13 15 16 18 19 19 18 18 20 22 25 27 29 30 32 33 33 30 28 28 28 28 29 30 31 33 34 36 38 39 41 41 42 42 42 42 41 41 42 42 41 40 40 38 35 34 35 39 44 48 50 49 48 49 48 46
19 17 14 12 11 12 14 15 16 17 19 19 17 17 19 21 24 26 28 30 32 33 32 31 30 29 29 29 29 29 31 33 35 36 37 38 39 40 41 41 43 43 43 42 42 42 42 42 41 40 39 37 35 33 33 37 42 47 50 51 52 53 52
16 14 12 12 13 14 14 15 17 18 18 16 16 17 20 23 26 28 29 30 31 33 32 31 30 29 29 30 30 32 33 35 38 39 40 40 41 41 42 42 43 43 43 43 42 41 41 41 42 42 43 42 40 36 33 33 34 36 41 46 50 53 54
16 13 12 12 13 14 15 15 17 17 16 15 17 20 23 26 28 30 30 31 32 33 32 31 30 30 30 31 33 34 36 38 39 40 40 40 40 41 42 42 43 43 44 44 43 41 40 40 42 44 46 46 44 41 39 38 34 31 32 35 40 44 48
14 11 11 12 13 14 14 15 15 15 16 18 21 24 26 27 28 29 31 33 33 32 31 30 30 30 31 32 33 34 36 37 37 37 38 39 40 42 43 43 43 44 44 44 43 41 40 40 41 43 45 46 46 45 43 42 38 34 31 31 32 36 39
11 9 10 11 12 13 13 14 15 17 20 22 24 24 25 26 27 28 29 30 30 30 30 30 30 31 31 30 31 32 33 35 36 37 39 40 41 42 43 43 43 43 44 44 42 41 41 41 41 43 43 44 46 47 45 41 40 38 35 32 32 33 35
9 10 11 12 13 13 15 16 18 20 22 22 22 22 24 26 27 27 29 31 32 31 32 31 31 32 32 32 31 31 33 35 37 39 40 41 42 42 42 42 42 42 43 43 42 40 40 41 42 43 43 43 47 50 46 40 38 40 38 35 33 33 33
9 10 10 11 12 13 14 15 17 18 19 19 20 22 24 26 26 27 30 34 35 35 35 34 33 32 32 33 33 33 34 36 38 39 40 42 43 43 42 42 43 44 44 43 42 41 40 40 41 42 42 45 49 50 45 39 37 40 39 35 32 33 34
8 7 8 9 9 10 11 12 14 16 18 19 21 23 25 27 27 29 31 35 38 39 38 37 35 33 32 33 33 33 34 36 37 39 42 43 43 44 43 43 44 44 44 43 42 41 40 40 40 40 42 45 48 47 44 41 39 38 39 37 32 30 33
5 5 6 7 9 11 11 13 15 17 18 20 21 24 27 29 29 30 32 36 40 42 40 37 36 34 33 33 32 32 33 36 37 39 42 43 43 43 43 44 44 44 43 42 41 41 41 40 39 41 43 44 44 42 42 42 40 36 38 43 39 31 31
2 3 5 7 9 10 12 13 16 17 18 20 23 26 28 28 29 31 33 38 42 43 40 37 35 35 34 33 32 32 33 35 35 36 39 42 43 43 44 45 45 45 43 42 41 42 42 42 42 43 43 42 42 40 39 40 40 37 37 43 45 38 32
0 2 4 6 7 9 11 12 14 16 18 21 25 26 26 27 28 31 36 42 45 43 39 36 35 34 34 34 34 34 34 34 34 35 38 41 42 43 44 44 44 43 43 42 42 42 43 43 43 44 43 42 40 40 38 38 39 38 36 41 47 44 35
Wind_Direction
210 220 236 253 261 311 5 8 11 16 18 26 35 41 49 50 31 324 291 283 272 267 265 259 248 236 227 226 231 247 262 265 262 259 255 253 254 255 254 254 251 246 244 245 245 245 251 255 252 253 257 254 248 245 244 247 243 236 237 243 249 255 257
223 228 237 243 242 272 322 347 3 12 11 13 16 18 27 36 38 35 21 6 348 306 287 280 269 255 241 234 230 234 247 258 261 263 261 260 260 259 256 256 255 251 247 247 246 244 246 252 257 261 264 259 249 243 244 248 246 239 238 242 248 251 252
227 226 236 238 230 241 260 290 340 353 351 356 2 356 357 6 14 16 11 4 357 347 324 302 288 275 260 248 242 239 241 246 253 259 263 266 266 263 261 259 257 256 254 251 248 245 245 247 251 254 257 257 253 247 244 246 246 244 242 244 246 246 250
232 230 240 244 237 237 240 255 292 316 331 340 342 335 334 340 348 352 351 348 343 336 329 316 299 288 276 264 257 252 251 251 251 253 258 265 268 265 264 263 259 257 257 256 253 248 244 244 247 250 251 251 254 256 250 246 246 245 245 246 245 244 248
244 241 243 246 245 243 246 255 266 283 304 314 318 320 323 329 336 337 335 333 330 326 324 319 309 296 285 278 270 263 260 259 258 256 255 258 264 264 262 264 265 262 259 259 259 253 247 247 249 252 256 256 253 254 254 248 244 243 244 247 248 248 248
248 247 243 242 244 247 248 249 256 268 281 293 303 310 317 321 322 321 319 319 320 320 317 312 307 299 291 283 274 266 261 259 259 260 256 253 254 257 258 260 264 266 262 259 259 257 254 253 252 253 257 259 255 252 250 243 234 234 238 241 246 248 246
250 251 246 245 248 250 249 251 259 265 269 278 286 291 298 303 306 309 312 313 313 312 308 302 296 292 289 284 276 267 261 256 254 255 256 253 251 251 255 258 261 262 263 261 258 256 256 257 254 252 254 256 253 252 250 242 238 241 242 240 242 245 246
253 253 250 249 251 252 253 259 267 269 268 269 275 282 287 294 301 307 311 313 313 310 307 302 295 289 286 283 277 271 264 257 251 249 251 252 253 253 253 255 259 260 260 261 260 257 255 256 255 254 253 252 250 252 252 249 250 256 258 254 246 242 247
251 253 252 251 253 255 257 263 269 273 275 276 280 286 292 298 304 307 310 311 314 315 315 311 305 300 294 284 278 277 274 265 255 248 246 248 251 254 255 255 256 258 259 259 260 260 258 255 254 254 254 253 251 251 252 255 257 258 262 262 253 243 244
253 254 253 251 254 258 259 261 266 271 276 280 285 290 295 300 303 306 309 311 315 319 319 316 310 305 302 294 287 286 287 280 268 255 248 246 247 249 254 257 256 256 258 260 260 260 260 259 256 254 254 255 255 253 252 256 260 260 261 263 259 252 249
255 255 254 252 254 259 261 262 264 269 274 279 284 290 296 301 304 306 307 311 317 320 319 316 309 304 300 296 293 291 290 288 281 269 257 251 249 249 251 254 256 255 255 257 260 261 262 263 261 258 255 254 256 255 254 255 259 261 262 262 262 262 262
256 256 254 254 256 259 263 264 264 267 271 278 285 293 299 301 303 305 308 314 318 318 317 314 309 302 296 294 294 293 291 289 286 279 269 260 256 255 254 252 253 254 253 254 258 262 264 263 263 263 261 257 254 255 257 256 257 261 262 262 263 264 265
255 255 253 253 257 260 262 263 265 268 273 280 288 294 298 300 303 308 314 317 317 315 315 313 309 303 297 293 291 290 290 289 286 282 278 270 262 259 259 256 253 252 251 252 255 260 263 264 264 265 265 263 259 257 258 256 256 261 264 263 264 264 263
254 256 253 251 253 256 259 261 264 269 274 281 289 294 298 303 310 314 314 313 313 313 312 310 309 306 301 297 293 289 287 285 284 283 281 277 270 263 260 258 255 251 249 248 249 252 257 261 266 267 265 265 265 263 260 257 255 260 265 264 263 262 258
253 255 254 251 251 252 254 259 263 268 275 283 290 295 301 308 312 312 311 310 309 309 307 305 304 301 299 297 295 293 289 285 282 282 282 280 278 273 266 260 257 254 249 246 245 246 250 255 262 266 265 264 264 264 262 259 256 259 264 265 264 261 255
250 253 254 254 253 251 253 257 261 268 277 284 290 297 305 310 310 307 306 305 304 304 303 300 295 292 290 290 292 291 290 289 285 284 284 284 283 282 277 270 263 258 254 250 246 243 245 250 256 261 264 264 262 262 264 263 259 259 264 265 263 261 257
246 249 252 254 254 253 254 257 262 271 279 285 293 302 307 307 304 300 298 298 297 297 297 295 292 289 286 287 289 291 292 292 291 290 290 290 290 288 284 280 273 265 260 258 253 247 243 245 249 255 263 267 265 260 260 263 263 261 263 263 262 263 262
243 247 248 251 253 253 255 259 264 272 279 287 297 303 305 304 301 298 295 292 290 289 289 289 290 290 289 288 289 290 292 293 292 292 291 290 290 289 286 283 280 275 270 265 260 254 247 245 246 249 255 265 272 267 260 259 263 264 263 261 260 263 262
240 243 245 247 249 252 255 259 264 271 281 290 297 301 303 304 302 299 295 290 285 283 282 283 285 286 287 288 289 289 289 289 289 289 289 288 287 286 285 283 281 280 279 275 268 262 254 249 248 250 251 255 266 274 269 263 260 262 262 261 261 260 257
238 240 242 245 247 249 251 255 263 274 285 291 298 303 304 302 299 296 293 289 285 281 280 280 281 283 284 286 288 289 288 286 286 286 286 287 287 287 286 285 284 282 279 277 273 267 260 254 251 251 252 254 259 267 273 270 264 261 260 262 264 262 256
234 237 240 242 244 246 248 256 267 277 288 297 303 305 301 298 298 296 293 290 287 284 283 283 284 283 284 287 289 290 290 289 288 287 286 286 285 286 287 288 288 287 284 281 278 274 268 261 256 251 249 251 256 260 266 270 270 265 259 258 261 264 259
229 233 237 239 242 246 250 260 272 283 294 302 304 301 300 300 300 297 293 291 290 290 289 289 287 283 281 283 286 288 288 287 287 286 284 283 282 282 282 282 283 284 285 285 284 283 278 272 267 259 250 248 250 254 256 259 265 268 263 257 257 260 258
226 228 232 236 241 246 254 264 277 290 297 300 301 301 301 300 297 295 293 293 292 292 292 292 292 289 284 281 280 281 281 281 281 281 281 281 281 280 279 278 277 276 275 274 276 278 279 278 275 269 259 252 250 252 252 251 253 258 264 264 261 260 258
224 226 229 234 238 246 256 270 283 291 293 295 300 301 297 293 290 289 290 291 292 293 294 295 296 295 292 287 282 280 278 277 277 276 277 279 280 280 280 280 280 279 277 275 274 274 274 275 275 273 268 259 252 252 253 253 251 251 256 261 262 263 263
220 223 227 231 239 250 262 275 283 286 289 292 295 295 290 286 285 285 287 289 291 293 295 296 296 296 296 294 291 289 286 285 282 279 277 277 278 279 280 280 281 281 281 281 280 279 276 274 272 270 270 266 258 253 251 252 253 252 252 255 257 256 258
217 221 227 235 246 259 267 274 279 281 285 291 294 294 289 286 284 285 287 290 292 294 295 296 297 298 298 297 296 295 294 293 291 287 283 281 280 280 280 281 280 279 279 280 280 280 280 280 277 273 270 268 264 259 253 250 251 251 251 254 257 254 252
217 222 229 240 252 261 266 271 275 281 288 294 296 291 285 283 283 285 290 294 296 297 297 296 296 297 298 297 297 295 294 292 290 289 287 286 285 284 283 283 281 279 278 277 277 278 279 280 280 278 273 267 262 262 260 255 252 252 251 252 255 255 252
214 219 230 245 255 259 263 269 276 284 291 291 284 279 278 280 285 289 294 297 299 299 298 295 293 293 293 293 292 291 289 287 287 286 286 286 286 285 285 285 283 281 279 277 275 275 275 276 277 277 275 270 263 257 254 254 252 253 255 254 255 256 255
209 219 236 249 254 256 262 272 279 282 281 274 271 274 281 287 293 296 298 301 303 301 297 293 290 289 288 288 288 287 287 287 287 286 286 286 286 286 285 284 282 281 280 278 276 275 274 274 274 274 273 273 269 260 251 247 245 245 250 255 257 258 257
213 229 246 251 254 260 266 271 271 268 267 269 275 283 290 295 299 301 304 307 307 302 297 294 292 290 289 289 289 288 288 287 287 288 288 289 290 289 288 285 283 281 279 277 276 275 274 273 272 272 271 271 271 266 255 247 243 241 241 246 252 255 257
223 236 244 247 251 257 261 263 266 269 273 279 285 292 297 301 305 310 315 318 315 310 304 301 299 297 295 294 292 290 288 288 288 289 291 292 292 291 290 287 284 281 279 277 276 273 272 271 270 269 268 267 268 267 261 252 245 243 242 243 245 248 252
229 233 235 242 249 257 264 270 275 278 281 287 292 298 305 310 314 320 327 330 328 323 317 312 308 303 299 296 293 290 288 287 288 290 293 294 295 294 291 288 284 281 279 278 277 275 271 268 266 264 264 264 264 265 265 260 251 246 247 249 247 245 248
225 231 241 252 263 273 279 281 283 286 289 293 296 302 314 323 325 327 330 332 332 330 324 319 315 310 305 300 296 292 290 290 291 294 295 297 297 295 292 289 285 282 280 278 276 275 272 268 264 262 261 259 259 261 264 264 256 247 245 249 250 246 246
214 235 258 274 290 302 304 299 296 296 294 293 296 306 320 328 328 327 329 331 331 330 326 320 316 311 307 303 299 295 293 292 294 296 296 296 296 293 292 289 286 284 282 279 277 275 273 269 265 262 259 256 257 260 262 264 263 255 245 243 245 245 244
221 257 286 311 325 328 321 308 299 294 291 293 301 312 322 326 326 325 327 328 328 329 325 319 315 312 309 306 304 300 296 295 295 296 295 295 294 293 291 290 288 286 284 280 277 274 272 270 267 263 261 259 260 261 261 262 266 264 250 240 241 244 242
259 303 326 333 334 331 322 305 294 291 293 298 309 317 322 324 325 325 325 327 328 328 325 320 317 315 313 312 310 306 301 298 298 297 295 294 294 294 293 291 289 287 285 280 275 270 267 266 265 263 262 262 261 261 261 261 263 265 257 245 241 243 242
167 328 332 336 341 340 330 310 295 295 302 310 316 320 322 323 324 325 327 329 330 328 325 322 320 318 317 316 313 310 306 304 303 301 297 296 296 295 293 292 290 288 285 280 274 268 263 262 261 262 262 262 261 258 258 258 258 260 259 249 241 240 240
Height
1528 1529 1530 1530 1531 1531 1531 1531 1531 1530 1530 1530 1531 1531 1531 1531 1531 1531 1531 1532 1532 1532 1532 1532 1532 1533 1533 1534 1534 1534 1534 1535 1536 1536 1536 1537 1538 1538 1539 1540 1541 1542 1543 1543 1544 1544 1544 1543 1543 1544 1544 1544 1545 1545 1545 1546 1546 1546 1547 1547 1548 1548 1548
1528 1529 1529 1530 1530 1530 1530 1530 1530 1530 1530 1530 1530 1530 1531 1531 1531 1531 1531 1531 1531 1531 1531 1531 1531 1532 1532 1532 1532 1532 1533 1533 1534 1534 1534 1535 1535 1536 1536 1537 1538 1538 1539 1540 1540 1541 1542 1541 1541 1541 1542 1542 1542 1542 1542 1543 1543 1544 1544 1545 1545 1546 1546
1527 1528 1528 1528 1529 1529 1529 1529 1529 1529 1529 1529 1529 1529 1530 1530 1530 1531 1531 1531 1531 1531 1531 1531 1531 1531 1531 1531 1531 1531 1531 1531 1532 1532 1532 1533 1533 1533 1534 1535 1535 1535 1536 1536 1537 1538 1539 1539 1539 1539 1540 1540 1540 1539 1540 1541 1541 1542 1542 1543 1543 1543 1543
1525 1526 1526 1527 1527 1527 1528 1528 1528 1528 1528 1528 1528 1529 1529 1529 1529 1529 1529 1530 1530 1530 1530 1530 1530 1530 1530 1529 1530 1530 1530 1530 1530 1530 1530 1530 1531 1531 1531 1532 1532 1533 1533 1533 1534 1535 1535 1536 1536 1536 1537 1538 1538 1537 1538 1538 1539 1540 1540 1540 1540 1540 1541
1524 1524 1524 1524 1525 1526 1526 1527 1527 1527 1527 1527 1527 1528 1528 1527 1527 1528 1528 1528 1528 1528 1528 1528 1528 1528 1528 1528 1528 1528 1528 1528 1528 1528 1528 1528 1528 1528 1529 1530 1530 1530 1531 1531 1531 1532 1532 1533 1533 1533 1534 1536 1536 1535 1536 1536 1536 1538 1538 1538 1538 1538 1538
1522 1522 1523 1523 1524 1524 1524 1525 1525 1526 1526 1526 1526 1526 1526 1526 1526 1526 1527 1527 1527 1527 1526 1526 1526 1525 1525 1525 1525 1525 1525 1525 1526 1526 1526 1526 1526 1526 1527 1527 1528 1528 1528 1528 1529 1529 1529 1530 1531 1531 1531 1533 1533 1533 1534 1534 1534 1534 1535 1536 1536 1536 1536
1521 1521 1522 1522 1522 1523 1523 1523 1524 1524 1524 1524 1525 1525 1525 1525 1525 1525 1525 1525 1525 1525 1525 1524 1524 1523 1523 1522 1522 1522 1522 1522 1523 1523 1523 1524 1524 1524 1524 1524 1525 1525 1525 1526 1526 1526 1527 1527 1528 1529 1529 1530 1530 1530 1530 1531 1531 1531 1532 1533 1533 1533 1534
1520 1520 1520 1520 1521 1521 1521 1522 1522 1522 1523 1523 1523 1524 1524 1524 1524 1524 1524 1523 1523 1523 1522 1522 1521 1521 1521 1520 1519 1518 1518 1519 1519 1520 1520 1520 1521 1521 1521 1522 1522 1522 1522 1523 1523 1523 1524 1524 1524 1526 1526 1526 1526 1526 1526 1528 1528 1528 1529 1530 1531 1531 1531
1518 1518 1519 1519 1519 1520 1520 1520 1520 1521 1521 1522 1522 1522 1522 1522 1522 1522 1521 1521 1520 1520 1519 1518 1518 1517 1517 1517 1517 1516 1515 1515 1516 1516 1517 1517 1517 1517 1518 1518 1518 1518 1519 1520 1520 1520 1520 1521 1521 1522 1522 1523 1523 1522 1522 1523 1523 1523 1524 1526 1527 1528 1529
1516 1516 1517 1517 1517 1518 1518 1519 1519 1519 1519 1520 1520 1520 1520 1520 1520 1519 1519 1518 1518 1517 1516 1515 1515 1514 1514 1514 1514 1513 1513 1512 1512 1512 1513 1513 1513 1514 1514 1515 1515 1514 1515 1516 1516 1517 1517 1517 1517 1518 1518 1519 1519 1519 1519 1518 1518 1519 1520 1521 1523 1524 1526
1514 1514 1515 1515 1515 1516 1516 1517 1517 1517 1517 1518 1518 1518 1518 1518 1517 1517 1516 1516 1515 1514 1514 1513 1513 1512 1511 1511 1510 1510 1510 1510 1509 1509 1509 1509 1510 1510 1511 1511 1511 1511 1512 1512 1512 1513 1514 1514 1514 1515 1515 1515 1515 1515 1516 1515 1514 1515 1517 1518 1518 1520 1521
1511 1512 1513 1513 1513 1513 1514 1515 1515 1515 1515 1515 1515 1515 1515 1515 1515 1514 1513 1513 1512 1512 1511 1511 1511 1510 1509 1508 1508 1507 1507 1507 1506 1506 1506 1506 1506 1507 1507 1508 1508 1508 1509 1509 1509 1510 1510 1511 1511 1512 1511 1512 1512 1512 1513 1513 1511 1511 1513 1514 1515 1516 1517
1509 1510 1510 1511 1511 1511 1512 1512 1513 1513 1513 1513 1513 1513 1513 1512 1512 1511 1510 1510 1509 1509 1509 1508 1508 1508 1507 1506 1505 1505 1504 1504 1504 1503 1503 1503 1503 1503 1503 1503 1504 1505 1506 1507 1506 1507 1507 1508 1508 1508 1509 1509 1509 1509 1510 1510 1508 1507 1508 1511 1512 1513 1514
1507 1508 1508 1508 1509 1509 1510 1510 1510 1511 1511 1511 1511 1511 1510 1509 1508 1508 1507 1507 1507 1506 1506 1505 1505 1505 1504 1504 1503 1502 1502 1501 1501 1500 1500 1499 1499 1500 1499 1499 1500 1501 1503 1503 1503 1504 1504 1505 1505 1505 1506 1506 1506 1506 1506 1506 1506 1504 1504 1506 1508 1509 1510
1504 1505 1506 1506 1506 1507 1508 1508 1508 1509 1509 1509 1509 1508 1507 1506 1506 1505 1505 1505 1504 1504 1504 1503 1503 1502 1502 1501 1500 1500 1499 1498 1498 1497 1496 1496 1496 1496 1496 1496 1496 1497 1498 1499 1499 1500 1501 1501 1502 1502 1502 1503 1502 1503 1503 1503 1504 1502 1500 1502 1504 1505 1506
1502 1503 1503 1503 1504 1505 1505 1506 1506 1506 1507 1507 1506 1505 1505 1504 1504 1503 1503 1502 1502 1502 1501 1501 1501 1500 1499 1499 1498 1497 1496 1496 1495 1494 1493 1493 1493 1493 1492 1492 1492 1493 1494 1494 1495 1496 1497 1498 1498 1498 1498 1499 1499 1499 1500 1500 1500 1500 1497 1497 1500 1501 1502
1499 1500 1500 1501 1502 1502 1503 1504 1504 1504 1504 1504 1503 1503 1502 1502 1501 1501 1501 1500 1500 1499 1499 1498 1498 1498 1497 1496 1495 1494 1494 1493 1492 1492 1491 1490 1490 1490 1489 1488 1488 1489 1490 1490 1490 1491 1493 1494 1495 1495 1494 1495 1495 1495 1496 1496 1496 1496 1495 1494 1495 1497 1497
1496 1497 1498 1499 1499 1500 1501 1501 1502 1502 1502 1501 1501 1501 1500 1500 1499 1499 1498 1498 1497 1497 1496 1495 1495 1494 1494 1493 1493 1492 1491 1490 1490 1489 1488 1488 1487 1487 1486 1486 1485 1485 1485 1485 1485 1486 1488 1489 1490 1491 1491 1491 1491 1491 1492 1492 1492 1493 1492 1492 1492 1493 1494
1494 1494 1495 1496 1497 1498 1498 1499 1499 1499 1499 1499 1499 1498 1498 1498 1497 1497 1496 1495 1494 1494 1493 1493 1492 1491 1491 1490 1490 1489 1488 1488 1487 1487 1486 1485 1484 1484 1483 1482 1482 1482 1481 1481 1482 1482 1483 1484 1485 1486 1487 1488 1488 1488 1488 1488 1488 1488 1488 1488 1488 1489 1490
1491 1492 1493 1494 1495 1496 1496 1496 1497 1497 1497 1497 1496 1496 1496 1495 1495 1494 1493 1492 1492 1491 1490 1490 1489 1489 1488 1487 1487 1486 1485 1485 1484 1483 1483 1482 1481 1480 1480 1479 1478 1478 1478 1478 1478 1478 1479 1479 1480 1481 1482 1483 1484 1485 1485 1485 1485 1484 1484 1484 1484 1485 1486
1488 1490 1491 1492 1493 1494 1494 1494 1494 1494 1495 1494 1494 1494 1493 1493 1492 1491 1490 1489 1489 1488 1487 1487 1486 1486 1485 1484 1484 1483 1482 1481 1480 1480 1479 1478 1478 1477 1476 1476 1475 1474 1474 1474 1474 1475 1475 1475 1475 1475 1477 1478 1479 1480 1480 1481 1481 1481 1480 1480 1480 1480 1481
1487 1488 1489 1490 1491 1491 1492 1492 1492 1492 1492 1492 1491 1491 1490 1490 1489 1488 1487 1486 1486 1485 1485 1484 1483 1483 1482 1481 1481 1480 1479 1478 1477 1476 1475 1474 1474 1474 1473 1472 1472 1471 1471 1471 1471 1471 1471 1471 1472 1471 1472 1473 1474 1475 1475 1476 1477 1477 1477 1476 1476 1476 1477
1485 1486 1487 1488 1489 1490 1490 1490 1490 1490 1490 1489 1489 1488 1487 1487 1486 1485 1485 1484 1483 1483 1482 1481 1480 1480 1479 1478 1477 1476 1475 1474 1473 1472 1471 1470 1469 1469 1468 1468 1467 1467 1467 1466 1467 1467 1466 1467 1467 1467 1468 1469 1469 1470 1470 1471 1471 1472 1473 1473 1472 1473 1472
1483 1484 1486 1487 1488 1488 1489 1488 1488 1488 1487 1487 1486 1485 1485 1484 1483 1483 1482 1481 1481 1480 1479 1478 1477 1476 1475 1474 1473 1472 1470 1469 1469 1468 1467 1466 1464 1464 1463 1463 1462 1461 1461 1461 1461 1462 1461 1461 1461 1462 1463 1464 1465 1465 1466 1466 1466 1467 1468 1468 1469 1470 1469
1481 1483 1484 1485 1486 1487 1487 1486 1486 1486 1485 1485 1484 1484 1483 1482 1481 1481 1480 1479 1478 1477 1476 1475 1474 1473 1472 1471 1470 1468 1467 1465 1464 1463 1462 1461 1460 1459 1458 1457 1457 1456 1456 1455 1455 1455 1455 1456 1456 1456 1457 1457 1458 1459 1460 1461 1461 1461 1463 1463 1464 1465 1466
1480 1482 1483 1484 1484 1485 1485 1485 1484 1484 1484 1484 1483 1481 1481 1480 1479 1478 1477 1476 1475 1474 1473 1471 1470 1469 1468 1467 1466 1465 1463 1461 1459 1458 1457 1456 1455 1454 1453 1452 1451 1451 1451 1451 1450 1450 1450 1450 1450 1450 1450 1451 1451 1452 1454 1456 1456 1456 1457 1458 1458 1458 1461
1479 1481 1482 1482 1483 1483 1483 1483 1483 1483 1482 1482 1480 1479 1478 1477 1476 1475 1474 1473 1472 1470 1469 1468 1467 1466 1464 1463 1462 1461 1459 1457 1455 1453 1452 1451 1450 1448 1448 1447 1445 1444 1445 1445 1445 1445 1445 1445 1445 1444 1444 1444 1445 1446 1447 1449 1450 1451 1452 1453 1452 1452 1455
1479 1480 1481 1481 1482 1482 1482 1481 1481 1481 1480 1479 1478 1477 1476 1475 1473 1472 1471 1470 1468 1466 1465 1464 1463 1462 1461 1459 1458 1456 1454 1452 1450 1449 1447 1446 1445 1443 1442 1441 1440 1439 1439 1439 1440 1440 1441 1441 1440 1439 1438 1437 1438 1439 1440 1441 1443 1445 1446 1447 1447 1448 1450
1478 1479 1480 1480 1480 1480 1480 1480 1479 1479 1478 1477 1476 1475 1474 1472 1471 1470 1468 1467 1465 1462 1461 1460 1459 1458 1456 1455 1453 1451 1449 1447 1445 1443 1441 1440 1439 1437 1436 1435 1434 1433 1432 1432 1433 1434 1435 1436 1435 1433 1432 1430 1431 1432 1432 1433 1436 1438 1440 1441 1442 1443 1444
1477 1478 1478 1478 1478 1478 1478 1477 1477 1476 1476 1475 1474 1473 1472 1470 1469 1467 1465 1463 1461 1458 1457 1456 1455 1453 1452 1450 1448 1446 1444 1442 1440 1437 1435 1434 1432 1430 1429 1429 1428 1427 1425 1425 1426 1428 1430 1430 1429 1427 1426 1425 1424 1424 1424 1426 1430 1432 1434 1435 1436 1437 1438
1476 1476 1476 1476 1477 1476 1476 1475 1474 1474 1474 1473 1472 1471 1469 1468 1466 1464 1462 1459 1457 1454 1452 1451 1450 1448 1447 1446 1444 1441 1439 1437 1434 1432 1429 1427 1426 1424 1422 1421 1421 1420 1419 1419 1420 1422 1424 1424 1423 1421 1421 1420 1419 1416 1416 1420 1424 1426 1428 1430 1431 1432 1433
1474 1474 1475 1474 1474 1474 1473 1473 1473 1472 1472 1471 1470 1469 1467 1465 1463 1461 1458 1456 1453 1451 1448 1446 1445 1443 1441 1440 1439 1437 1435 1432 1429 1426 1424 1421 1418 1417 1415 1414 1413 1413 1412 1413 1414 1415 1417 1418 1416 1415 1416 1416 1412 1408 1410 1416 1419 1420 1422 1424 1425 1426 1427
1471 1472 1473 1473 1473 1472 1471 1471 1470 1470 1469 1468 1467 1466 1464 1462 1459 1457 1454 1452 1449 1447 1444 1441 1440 1438 1436 1435 1434 1432 1430 1427 1423 1421 1418 1415 1411 1409 1408 1406 1405 1405 1406 1406 1407 1408 1409 1410 1410 1409 1410 1409 1404 1403 1407 1412 1413 1414 1417 1418 1419 1420 1421
1469 1470 1471 1471 1471 1470 1469 1468 1468 1467 1467 1466 1464 1463 1461 1458 1455 1453 1451 1448 1445 1443 1440 1437 1435 1433 1431 1429 1428 1426 1424 1421 1419 1415 1412 1409 1406 1402 1400 1399 1398 1398 1398 1399 1400 1401 1401 1402 1403 1403 1402 1400 1399 1402 1406 1407 1407 1409 1411 1412 1413 1415 1416
1467 1469 1470 1469 1468 1467 1466 1466 1466 1465 1464 1463 1461 1460 1457 1455 1452 1449 1447 1445 1442 1439 1436 1433 1430 1427 1425 1423 1422 1420 1418 1415 1414 1411 1406 1402 1399 1396 1394 1392 1391 1391 1391 1392 1392 1393 1394 1395 1396 1395 1394 1394 1396 1400 1402 1401 1402 1404 1405 1406 1407 1409 1410
1466 1467 1467 1467 1466 1466 1465 1465 1464 1463 1462 1460 1458 1457 1454 1451 1449 1446 1443 1440 1438 1434 1431 1427 1424 1422 1419 1417 1415 1414 1412 1409 1408 1405 1400 1396 1393 1390 1387 1385 1384 1383 1384 1384 1385 1385 1386 1387 1388 1387 1388 1390 1392 1394 1396 1397 1397 1398 1398 1400 1401 1402 1404
1465 1466 1466 1466 1465 1465 1464 1463 1462 1461 1460 1458 1456 1454 1451 1448 1445 1442 1439 1435 1432 1429 1426 1422 1419 1416 1414 1411 1409 1407 1405 1402 1400 1398 1394 1390 1386 1383 1380 1378 1377 1376 1376 1375 1376 1377 1378 1379 1379 1380 1382 1384 1386 1388 1390 1391 1391 1392 1393 1394 1395 1396 1399